www.pogodaiklimat.ru

Погода и климат >> Архив погоды >> Ямайка >> Кингстон


АРХИВ ПОГОДЫ в Кингстоне

Время (UTC), дата Ветер
(напр.,м/с)
 
Видим.   Явления Облачность Т
(С)
Тd
(С)
f
(%)
Тe
(С)
Тes
(С)
Комфортность P
(гПа)
Po
(гПа)
Тmin
(С)
Tmax
(С)
R
(мм)
R24
(мм)
S
(см)
18 15.03 ЮВ 7 28 км осадки на расстоянии 4/4 600 м
[Cu Sc]
+29.4 +22.5 66 +38 +41 очень
душно
1015.3 1014.8 +23.1 +30.9
21 15.03 ЮВ 11 22 км осадки на расстоянии 6/6 600 м
[Cu Sc]
+27.7 +18.6 58 +33 +33 очень
душно
1013.9 1013.4
00 16.03 З 5 22 км мгла 1/1 600 м
[Sc diur, vesp]
+28.1 +22.6 72 +37 +37 очень
душно
1015.2 1014.7 +23.1 +30.9 0.0
03 16.03 З 2 20 км мгла 1/1 600 м
[Cu Sc]
+25.4 +18.2 64 +30 +30 душно 1016.7 1016.2
06 16.03 СЗ 3 20 км мгла 1/1 660 м
[Cu Sc]
+25.2 +20.2 74 +31 +31 очень
душно
1015.3 1014.8 +23.1 +30.9
09 16.03 СЗ 2 20 км мгла 1/1 660 м
[Cu Sc]
+24.0 +15.9 61 +27 +27 жарко 1014.9 1014.4
12 16.03 СЗ 2 15 км мгла 3/3 660 м
[Cu Sc]
+23.4 +20.6 84 +31 +32 очень
душно
1016.9 1016.4 +22.1 +30.9
15 16.03 Ю 2 12 км мгла 3/3 660 м
[Cu Sc Ac lent]
+29.0 +16.8 48 +33 +43 очень
душно
1018.0 1017.5
18 16.03 ЮВ 6 20 км мгла 4/4 660 м
[Cu Sc]
+29.3 +22.4 66 +38 +42 очень
душно
1015.7 1015.2 +22.1 +30.5
21 16.03 ЮВ 9 18 км осадки на расстоянии 4/4 660 м
[Cu Sc]
+28.0 +19.1 58 +33 +34 очень
душно
1014.1 1013.6
00 17.03 ЮВ 7 20 км мгла 3/3 660 м
[Cu Sc Ci sp]
+27.2 +22.4 75 +36 +36 очень
душно
1015.2 1014.7 +22.1 +30.9 0.0
03 17.03 нст 1 20 км мгла 3/3 660 м
[Cu Sc Ci sp]
+25.6 +18.2 64 +30 +30 душно 1016.7 1016.2
06 17.03 СЗ 2 20 км мгла 1/1 660 м
[Cu Sc]
+24.8 +21.7 83 +32 +32 очень
душно
1015.2 1014.7 +22.1 +30.9
09 17.03 СЗ 3 20 км мгла 1/1 660 м
[Cu Sc]
+24.6 +16.7 61 +28 +28 душно 1014.1 1013.6
12 17.03 С 4 15 км мгла 1/1 720 м
[Sc diur, vesp]
+24.9 +19.8 73 +30 +31 душно 1015.6 1015.1 +23.2 +30.9
15 17.03 нст 1 20 км мгла 3/3 720 м
[Sc diur, vesp Ac lent]
+29.2 +17.9 51 +34 +46 очень
душно
1016.9 1016.4
18 17.03 ЮВ 5 18 км осадки на расстоянии 8/8 600 м
[Cu Sc Ac lent]
+28.6 +22.5 70 +38 +40 очень
душно
1015.2 1014.7 +23.2 +30.0
21 17.03 СВ 3 20 км осадки на расстоянии 9/8 600 м
[Cu Sc Ac lent]
+27.9 +16.4 50 +31 +32 душно 1014.0 1013.5
00 18.03 ЮВ 3 18 км в посл. час ливневой дождь 9/9 540 м
[Cu Sc Ac trans]
+25.5 +22.6 84 +34 +34 очень
душно
1014.7 1014.2 +23.2 +30.0 1
03 18.03 С 3 20 км мгла 3/3 600 м
[Cu Sc Ac lent]
+25.5 +19.0 67 +30 +30 душно 1015.8 1015.3
06 18.03 нст 1 20 км мгла 8/8 600 м
[Cu Sc Ac lent]
+24.3 +21.5 84 +31 +31 очень
душно
1014.6 1014.1 +23.2 +30.0
09 18.03 С 2 20 км мгла 1/1 660 м
[Cu Sc Ac lent]
+24.5 +17.1 63 +28 +28 душно 1013.6 1013.1
12 18.03 СЗ 2 22 км 1/1 600 м
[Cu Sc As op Ci sp]
+22.7 +21.9 95 +30 +31 очень
душно
1015.1 1014.6 +21.9 +30.0
15 18.03 ЮВ 4 22 км мгла 3/3 660 м
[Cu Sc Ac trans]
+28.3 +18.6 56 +33 +40 очень
душно
1016.7 1016.2
18 18.03 ЮВ 4 15 км осадки на расстоянии 6/6 500 м
[Sc diur, vesp]
+28.6 +22.7 70 +38 +43 очень
душно
1015.0 1014.5 +21.9 +29.7
21 18.03 ЮВ 5 7000 м осадки на расстоянии 9/8 500 м
[Sc diur, vesp Ci fib]
+27.5 +18.0 56 +32 +32 очень
душно
1013.0 1012.5
00 19.03 ЮВ 7 22 км мгла {дождь} 3/3 660 м
[Cu Sc]
+27.0 +21.8 73 +35 +35 очень
душно
1013.5 1013.0 +21.9 +29.7 0.0
03 19.03 СВ 3 22 км мгла 1/1 660 м
[Cu Sc]
+25.8 +17.6 61 +30 +30 душно 1015.5 1015.0
06 19.03 нст 1 22 км мгла 1/1 660 м
[Cu Sc]
+23.5 +21.5 89 +30 +30 очень
душно
1014.7 1014.2 +21.9 +29.7
09 19.03 С 2 22 км мгла 1/1 660 м
[Cu Sc]
+23.8 +16.2 62 +27 +27 жарко 1014.0 1013.5
12 19.03 СЗ 2 20 км мгла 3/1 660 м
[Cu Sc Ac trans Ci sp]
+22.8 +20.0 84 +29 +30 очень
душно
1015.3 1014.8 +21.6 +29.7
15 19.03 ЮВ 4 30 км мгла 4/1 660 м
[Cu hum Ci sp]
+28.4 +18.4 55 +33 +41 очень
душно
1016.7 1016.2
18 19.03 Ю 8 30 км мгла 3/1 600 м
[Sc diur, vesp Ci sp]
+30.1 +22.8 65 +40 +43 очень
душно
1015.0 1014.5 +21.6 +30.6
21 19.03 Ю 4 14 км мгла 4/4 540 м
[Sc diur, vesp Ac cuf Ci sp]
+28.7 +19.5 58 +35 +37 очень
душно
1013.8 1013.3
00 20.03 ЮВ 4 18 км мгла 1/1 540 м
[Sc diur, vesp Ci fib]
+30.2 +21.4 59 +38 +38 очень
душно
1014.2 1013.7 +21.6 +30.6
03 20.03 ЮВ 2 20 км мгла 1/1 600 м
[Sc diur, vesp Ci fib]
+26.0 +17.8 61 +30 +30 душно 1016.1 1015.6
06 20.03 С 3 20 км мгла 1/1 660 м
[Cu Sc]
+25.0 +21.8 82 +32 +32 очень
душно
1015.1 1014.6 +21.6 +30.6
09 20.03 С 2 20 км мгла 1/1 660 м
[Cu Sc]
+24.6 +16.7 61 +28 +28 душно 1013.8 1013.3
12 20.03 С 2 18 км мгла 1/1 660 м
[Cu Sc]
+24.0 +20.1 79 +30 +31 очень
душно
1015.6 1015.1 +21.7 +30.6
15 20.03 Ю 2 30 км мгла 1/1 800 м
[Cu hum]
+28.1 +17.1 51 +32 +45 душно 1016.8 1016.3
18 20.03 ЮВ 4 35 км мгла 1/1 660 м
[Sc diur, vesp]
+29.6 +22.2 64 +38 +51 опасность
солнечного
удара
1014.7 1014.2 +21.7 +30.2
21 20.03 ЮВ 4 30 км мгла 1/1 660 м
[Sc diur, vesp Ci fib]
+28.3 +18.3 55 +33 +37 очень
душно
1012.8 1012.3
00 21.03 Ю 2 22 км мгла 9/9 600 м
[Sc diur, vesp Ac lent]
+27.1 +21.6 72 +35 +35 очень
душно
1013.9 1013.4 +21.7 +30.2
03 21.03 Ю 3 22 км мгла 8/8 600 м
[Sc diur, vesp Ac lent]
+26.3 +18.1 61 +31 +31 душно 1015.6 1015.1
06 21.03 нст 1 20 км мгла 9/9 660 м
[Sc diur, vesp]
+26.4 +22.1 77 +34 +34 очень
душно
1014.8 1014.3 +21.7 +30.2
09 21.03 В 2 18 км в посл. час дождь {ливн. осадки} 9/9 540 м
[Sc diur, vesp]
+23.6 +20.6 83 +29 +29 душно 1013.6 1013.1
12 21.03 нст 1 18 км мгла {дождь} 3/3 600 м
[Cu Sc Ci fib]
+24.1 +23.0 94 +32 +33 очень
душно
1015.2 1014.7 +21.8 +30.2 22
15 21.03 Ю 2 20 км мгла 3/3 600 м
[Cu Sc Ci fib]
+28.1 +20.3 63 +35 +45 очень
душно
1016.7 1016.2
18 21.03 Ю 3 20 км осадки на расстоянии 3/3 600 м
[Cu Sc]
+29.4 +22.6 67 +39 +51 опасность
солнечного
удара
1014.6 1014.1 +21.8 +29.5
21 21.03 Ю 3 22 км осадки на расстоянии 4/4 600 м
[Cu Sc Ac trans]
+28.6 +19.7 59 +35 +38 очень
душно
1013.2 1012.7
00 22.03 нст 1 20 км мгла 8/8 600 м
[Cu Sc Ac lent Ci fib]
+26.7 +21.5 73 +34 +34 очень
душно
1014.0 1013.5 +21.8 +29.6
03 22.03 нст 1 20 км мгла 8/4 600 м
[Cu Sc Ac cuf]
+26.5 +19.5 65 +32 +32 очень
душно
1015.3 1014.8
06 22.03 нст 1 18 км в посл. час ливневой дождь 5/4 600 м
[Sc diur, vesp Ac cuf]
+25.6 +22.2 82 +33 +33 очень
душно
1014.4 1013.9 +21.8 +29.6 0.0
09 22.03 штиль 0 18 км мгла 9/1 600 м
[Sc diur, vesp Ac As]
+24.9 +21.3 80 +31 +31 очень
душно
1013.8 1013.3
12 22.03 ЮВ 3 12 км мгла 4/4 600 м
[Cu Sc Ac As]
+24.7 +22.2 86 +32 +33 очень
душно
1015.2 1014.7 +24.1 +29.6
15 22.03 Ю 2 18 км мгла 3/1 660 м
[Cu Sc Ac lent Ci sp]
+28.2 +20.1 61 +34 +47 очень
душно
1016.7 1016.2

 

Местоположение метеостанции Кингстон (Ямайка): широта 17.93 долгота -76.78 высота над уровнем моря 14 м.

В архиве по умолчанию представлена погода в Кингстоне за последнюю неделю. Архивные данные за месяц целиком и за предыдущие месяцы, начиная с января 2011 года, Вы можете получить, выбрав интересующий диапазон дат из раскрывающегося списка и нажав кнопку "Ввод!".


*Определитесь, кто Вы:
робот инопланетянин человек

Внимание! Время в таблицах - всемирное. Для получения местного времени необходимо прибавить поправку, которая равна -5 ч.

Смотрите также архив погоды в соседних городах и на ближайших метеорологических станциях:

Погода в Монтего-Бее (Ямайка) (135 км)
Погода в Кабо де Крус (Куба) (236 км)
Погода в Сантьяго-де-Кубе (Куба) (247 км)
Погода в Сантьяго-де-Кубе (Куба) (267 км)
Погода в Санта Крус дель Сур (Куба) (336 км)
Погода в Пуэрто-Падре (Куба) (364 км)
Погода в Кабо-Луреции (Куба) (370 км)
Погода в Пунта Лукреция (Куба) (370 км)
Погода в Пунта-де-Маиси (Куба) (378 км)
Погода в Камагуэе (Куба) (402 км)

Пояснения к столбцам:

Ветер - указаны скорость ветра в м/с - средняя за 10 мин, порывы в срок и между сроками (в фигурных скобках) и направление, откуда дует ветер: С - северный, СВ - северо-восточный, В - восточный, ЮВ - юго-восточный, Ю - южный, ЮЗ - юго-западный, З - западный, СЗ - северо-западный.
Видимость - горизонтальная дальность видимости в метрах или километрах. При видимости от 1 до 10 км при отсутствии осадков обычно наблюдается дымка, при ухудшении видимости до 1 км и менее - туман. В сухую погоду видимость может ухудшаться дымом, пылью или мглою.
Явления - указаны атмосферные явления, наблюдавшиеся в срок или в последний час перед сроком; фигурными скобками обозначены явления, наблюдавшиеся между сроками (за 1-3 часа до срока); квадратными скобками обозначены град или гололедные отложения с указанием их диаметра в мм.
Облачность - указаны через наклонную черту общая и нижняя облачность в баллах и высота нижней границы облаков в метрах; квадратными скобками обозначены формы облаков: Ci - перистые, Cs - перисто-слоистые, Cc - перисто-кучевые, Ac - высококучевые, As - высокослоистые, Sc - слоисто-кучевые, Ns - слоисто-дождевые, Cu - кучевые, Cb - кучево-дождевые. Подробнее классификацию облаков см. в Атласе облаков (PDF).
T - Температура воздуха - температура, измеренная на высоте 2 м над землей.
Td - Температура точки росы - температура, при понижении до которой содержащийся в воздухе водяной пар достигнет насыщения.
f - Относительная влажность воздуха - влажноcть воздуха, измеренная на высоте 2 м над землей.
Te - Эффективная температура - температура, которую ощущает одетый по сезону человек в тени. Характеристика душности погоды. При расчете учитывается влияние влажности воздуха и скорости ветра на теплоощущения человека.
Tes - Эффективная температура на солнце - температура, которую ощущает человек, с поправкой на солнечный нагрев. Характеристика знойности погоды. Зависит от высоты солнца над горизонтом, облачности и скорости ветра. Ночью, в пасмурную погоду, а также при ветре 12 м/с и более поправка равна нулю.
P - Атмосферное давление - приведенное к уровню моря атмосферное давление.
Po - Атмосферное давление - измеренное на уровне метеостанции атмосферное давление.
Tmin - Минимальная температура - минимум температуры воздуха на высоте 2 м над землей.
Tmax - Максимальная температура - максимум температуры воздуха на высоте 2 м над землей.
R - Количество осадков - Количество выпавших осадков за период времени, мм. При наведении курсора мыши на число - период времени, за который выпало указанное количество осадков.
R24 - Количество осадков - Количество выпавших осадков за 24 часа, мм.
S - Снежный покров - Высота снежного покрова, см. При наведении курсора мыши на число - состояние снежного покрова и степень покрытия местности в баллах.